| time (UTC) | temp F | wind direction | speed knots | gust knots | rain 1hr in | rain 24hr in | rain mn in | humidity % | barometer mb |
| 20260504081535 | 37 | 146 | 0.0 | 1.7 | 0.00 | 0.00 | 0.00 | 65 | 1014.9 |
| 20260504050019 | 41 | 146 | 0.0 | 2.6 | 0.00 | 0.00 | 0.00 | 63 | 1015.3 |
| 20260504044523 | 41 | 146 | 0.0 | 2.6 | 0.00 | 0.00 | 0.00 | 63 | 1015.2 |
| 20260504043034 | 41 | 146 | 0.0 | 1.7 | 0.00 | 0.00 | 0.00 | 62 | 1015.1 |
| 20260504041523 | 41 | 138 | 0.9 | 1.7 | 0.00 | 0.00 | 0.00 | 62 | 1015.2 |
| 20260504040007 | 42 | 138 | 0.0 | 1.7 | 0.00 | 0.00 | 0.00 | 59 | 1015.1 |
| 20260504034510 | 43 | 138 | 0.0 | 1.7 | 0.00 | 0.00 | 0.00 | 58 | 1015.0 |
| 20260504033004 | 43 | 138 | 0.0 | 0.9 | 0.00 | 0.00 | 0.00 | 58 | 1015.0 |
| 20260504031510 | 43 | 138 | 0.0 | 1.7 | 0.00 | 0.00 | 0.00 | 57 | 1015.1 |
| 20260504030009 | 44 | 138 | 0.0 | 0.0 | 0.00 | 0.00 | 0.00 | 55 | 1015.2 |
| 20260504024508 | 45 | 138 | 0.0 | 1.7 | 0.00 | 0.00 | 0.00 | 54 | 1015.2 |
| 20260504023014 | 45 | 138 | 0.0 | 0.0 | 0.00 | 0.00 | 0.00 | 53 | 1015.0 |
| 20260504021508 | 46 | 138 | 0.0 | 0.9 | 0.00 | 0.00 | 0.00 | 51 | 1015.0 |
| 20260504020006 | 47 | 138 | 0.0 | 0.9 | 0.00 | 0.00 | 0.00 | 47 | 1014.9 |
| 20260504014503 | 48 | 138 | 0.0 | 0.9 | 0.00 | 0.00 | 0.00 | 46 | 1014.5 |
| 20260504013027 | 49 | 138 | 0.0 | 1.7 | 0.00 | 0.00 | 0.00 | 44 | 1014.3 |
| 20260504011515 | 50 | 138 | 0.9 | 2.6 | 0.00 | 0.00 | 0.00 | 42 | 1014.2 |
| 20260504010014 | 51 | 138 | 0.0 | 0.9 | 0.00 | 0.00 | 0.00 | 40 | 1013.7 |
| 20260504004510 | 53 | 138 | 0.0 | 1.7 | 0.00 | 0.00 | 0.00 | 36 | 1014.0 |
| 20260504003008 | 54 | 138 | 0.0 | 1.7 | 0.00 | 0.00 | 0.00 | 34 | 1013.9 |
| 20260504001510 | 56 | 138 | 0.9 | 2.6 | 0.00 | 0.00 | 0.00 | 31 | 1013.8 |
| 20260504000011 | 59 | 136 | 1.7 | 2.6 | 0.00 | 0.00 | 0.00 | 25 | 1013.5 |
| 20260503234523 | 61 | 144 | 0.0 | 3.5 | 0.00 | 0.00 | 0.00 | 20 | 1013.5 |
| 20260503233021 | 61 | 180 | 0.9 | 3.5 | 0.00 | 0.00 | 0.00 | 19 | 1013.3 |
| 20260503231518 | 62 | 188 | 0.9 | 7.0 | 0.00 | 0.00 | 0.00 | 19 | 1013.3 |
| 20260503230011 | 63 | 215 | 1.7 | 5.2 | 0.00 | 0.00 | 0.00 | 18 | 1013.3 |
| 20260503224513 | 64 | 186 | 2.6 | 7.0 | 0.00 | 0.00 | 0.00 | 15 | 1013.3 |
| 20260503223023 | 65 | 183 | 2.6 | 5.2 | 0.00 | 0.00 | 0.00 | 15 | 1013.3 |
| 20260503221522 | 65 | 309 | 1.7 | 6.1 | 0.00 | 0.00 | 0.00 | 14 | 1013.4 |
| 20260503220016 | 65 | 302 | 2.6 | 7.8 | 0.00 | 0.00 | 0.00 | 15 | 1013.6 |
| 20260503214518 | 65 | 207 | 0.9 | 6.1 | 0.00 | 0.00 | 0.00 | 14 | 1013.7 |
| 20260503213011 | 65 | 283 | 2.6 | 7.8 | 0.00 | 0.00 | 0.00 | 12 | 1013.7 |
| 20260503211522 | 65 | 225 | 4.3 | 8.7 | 0.00 | 0.00 | 0.00 | 11 | 1013.9 |
| 20260503210024 | 66 | 257 | 4.3 | 8.7 | 0.00 | 0.00 | 0.00 | 11 | 1014.1 |
| 20260503204516 | 66 | 185 | 1.7 | 4.3 | 0.00 | 0.00 | 0.00 | 14 | 1014.1 |
| 20260503203035 | 64 | 228 | 0.9 | 7.0 | 0.00 | 0.00 | 0.00 | 12 | 1014.2 |
| 20260503201519 | 64 | 225 | 4.3 | 8.7 | 0.00 | 0.00 | 0.00 | 11 | 1014.5 |
| 20260503200017 | 63 | 268 | 1.7 | 10.4 | 0.00 | 0.00 | 0.00 | 15 | 1014.6 |
| 20260503194537 | 64 | 208 | 4.3 | 12.2 | 0.00 | 0.00 | 0.00 | 12 | 1015.0 |
| 20260503193027 | 63 | 281 | 2.6 | 8.7 | 0.00 | 0.00 | 0.00 | 16 | 1015.0 |
| 20260503191519 | 62 | 161 | 1.7 | 7.8 | 0.00 | 0.00 | 0.00 | 13 | 1015.3 |
| 20260503190006 | 62 | 206 | 4.3 | 9.6 | 0.00 | 0.00 | 0.00 | 17 | 1015.5 |
| 20260503184515 | 61 | 256 | 1.7 | 7.8 | 0.00 | 0.00 | 0.00 | 15 | 1015.7 |
| 20260503183003 | 61 | 157 | 3.5 | 10.4 | 0.00 | 0.00 | 0.00 | 15 | 1015.9 |
| 20260503181510 | 61 | 246 | 3.5 | 6.1 | 0.00 | 0.00 | 0.00 | 17 | 1016.1 |
| 20260503180012 | 60 | 147 | 2.6 | 7.0 | 0.00 | 0.00 | 0.00 | 20 | 1016.1 |
| 20260503174506 | 59 | 209 | 1.7 | 5.2 | 0.00 | 0.00 | 0.00 | 16 | 1016.4 |
| 20260503173005 | 58 | 52 | 4.3 | 9.6 | 0.00 | 0.00 | 0.00 | 20 | 1016.4 |
| 20260503171516 | 57 | 227 | 1.7 | 7.8 | 0.00 | 0.00 | 0.00 | 19 | 1016.6 |